FENGYUN 1C DEB

Satellite information

Favourite Embed

Satellite Type and Status

DEBRISIN ORBIT

Key statistics

Satellite FENGYUN 1C DEB at a glance.

Uptime

9555

Days in orbit

Revolutions

≈ 14.1

Per day

Orbit

SSO

Sun Synchronous Orbit

Inclination

98.8

Latest

Satellite identification and parameters

Extended collection of information and parameters for FENGYUN 1C DEB.

Object identification

Identified? True

Debris? True

Object name: FENGYUN 1C DEB

International designator: 1999-025ALE

Object number (NORAD): 30564

Object ID (CCSDS): 30564

Country: PEOPLES REPUBLIC OF CHINA (PRC)

Current information (Y/N): Y

RCS size: SMALL

Orbital parameters

Period: 102.475 minutes

Inclination: 98.8015 deg

SMA: 7253.899 km

Apoapsis: 1022.84 km

Periapsis: 728.687 km

RAAN: 203.9081 deg

Eccentricy: 0.0202755

Argument of periapsis: 205.159 deg

Mean anomaly: 282.9737 deg

Mean motion: 14.05223877 rev/day

Mean motion (dot): 0.0000068 rev/day2

B* drag term: 0.00037219 1/REarth

Two-line elements (TLE)

Creation date: July 6, 2025, 10:56 p.m.

Reference frame: TEME

Reference center: EARTH

Epoch: July 6, 2025, 2:50 p.m. UTC

TLE line 0: 0 FENGYUN 1C DEB

TLE line 1: 1 30564U 99025ALE 25187.61871825 .00000680 00000-0 37219-3 0 9993

TLE line 2: 2 30564 98.8015 203.9081 0202755 205.1590 282.9737 14.05223877940849

Live tracking on map

Real-time ground track for satellite FENGYUN 1C DEB.

In-orbit conjunctions

A list of the most updated potential collisions computed for object FENGYUN 1C DEB.

Target Orbit TCA Probability of collision Miss distance Type
START 1 LEO 2025-05-23 01:48:22 0.000253596 535.0 (m) PAYLOAD
QAEM 100 R/B LEO 2025-04-18 01:51:15 0.0002271719 720.0 (m) ROCKET BODY
COSMOS 1375 DEB LEO 2024-12-26 06:33:47 0.0001135207 452.0 (m) DEBRIS

Associated space launch

Chinese polar orbiting meteorological satellite

FENGYUN 1C DEB was lifted into orbit during the mission ‘Long March 4B | Feng Yun 1C’, on board a Long March 4B space rocket.

The launch took place on May 10, 1999, 1:33 a.m. from Launch Complex 7.

For more information about the launch, click the button.

Launch to space Long March 4B | Feng Yun 1C
Long March 4B | Feng Yun 1C

Agency: N/A

Status: Launch Successful

Launch date: May 10, 1999, 1:33 a.m. UTC

Rocket: Long March 4B

Launch pad: Launch Complex 7

Location: Taiyuan Satellite Launch Center, People's Republic of China

...

Latest news about this satellite

There are no fresh news available about this satellite. Check back as we update our databases every day.


Newsletter sign-up

Weekly statistics, charts and insights to help you stay on top of the space industry.